Regional Weather Roundup
Issued by NWS

Home | Current Version | Previous Version | Text Only | Print | Product List | Glossary Off
Versions: 1 2 3 4 5 6 7 8 9 10 11 12 13 14 15 16 17 18 19 20 21 22 23 24 25 26 27 28 29 30 31 32 33 34 35 36 37 38 39 40 41 42 43 44 45 46 47 48 49 50

000
ASUS43 KMKX 210900
RWRWI

WISCONSIN REGIONAL WEATHER ROUNDUP
NATIONAL WEATHER SERVICE MILWAUKEE/SULLIVAN WI
400 AM CDT SAT APR 21 2018

NOTE: "FAIR" INDICATES FEW OR NO CLOUDS BELOW 12,000 FEET WITH NO
SIGNIFICANT WEATHER AND/OR OBSTRUCTIONS TO VISIBILITY.

WIZ001-002-006>008-014>016-023>028-211000-
NORTHWEST WISCONSIN

CITY           SKY/WX    TMP DP  RH WIND       PRES   REMARKS
SUPERIOR ARPT  FAIR      33  21  61 SW7       30.41S WCI  27
ASHLAND        FAIR      26  21  81 S3        30.41S
HAYWARD        FAIR      27  22  81 CALM      30.41S
SIREN          FAIR      28  21  75 CALM      30.41F
CUMBERLAND     FAIR      28  21  74 CALM      30.41S
RICE LAKE      FAIR      28  25  89 CALM      30.43S
CHETEK         FAIR      28  24  85 CALM      30.42S
LADYSMITH      FAIR      30  24  77 CALM      30.43S
EAU CLAIRE     FAIR      30  24  78 CALM      30.41S
MENOMONIE      FAIR      34  26  74 CALM      30.42R
NEW RICHMOND   FAIR      31  27  83 CALM      30.41S
OSCEOLA        FAIR      32  26  80 CALM      30.45R
$$

WIZ003>005-009-010-017-018-211000-
NORTH CENTRAL WISCONSIN

CITY           SKY/WX    TMP DP  RH WIND       PRES   REMARKS
MANITOWISH WTR FAIR      26  21  82 CALM      30.40S
ARBOR VITAE    FAIR      29  20  69 CALM      30.40S
WOODRUFF       FAIR      29  20  69 CALM      30.40S
RHINELANDER    FAIR      29  17  61 CALM      30.41R
EAGLE RIVER    FAIR      28  20  72 CALM      30.40R
LAND O LAKES   FAIR      27  20  77 CALM      30.41S
PHILLIPS       FAIR      25  22  86 CALM      30.40S
TOMAHAWK       FAIR      23  18  78 CALM      30.42R
MEDFORD        FAIR      27  21  79 CALM      30.40S
MERRILL        FAIR      25  21  85 CALM      30.43R
$$

WIZ029-030-035-036-043>047-211000-
CENTRAL WISCONSIN

CITY           SKY/WX    TMP DP  RH WIND       PRES   REMARKS
WAUSAU         FAIR      28  21  75 CALM      30.40S
MOSINEE        FAIR      32  18  55 CALM      30.42S
MARSHFIELD     FAIR      33  24  69 CALM      30.39S
STEVENS POINT  FAIR      26  19  74 CALM      30.43S
WAUPACA        FAIR      30  24  76 CALM      30.43S
WAUTOMA        FAIR      28  25  88 CALM      30.44S
WISC RAPIDS    FAIR      30  18  60 CALM      30.42F
CAMP DOUGLAS   FAIR      28  24  86 CALM      30.41F
$$

WIZ011>013-019>022-031-037>040-048>050-211000-
NORTHEAST WISCONSIN

CITY           SKY/WX    TMP DP  RH WIND       PRES   REMARKS
ANTIGO         FAIR      27  22  80 CALM      30.42R
SHAWANO        FAIR      31  23  72 CALM      30.43R
OCONTO         FAIR      26  21  82 CALM      30.43R
STURGEON BAY   FAIR      39  19  44 W6        30.44R WCI  35
GREEN BAY      FAIR      29  24  82 CALM      30.43S
MANITOWOC      FAIR      29  26  89 CALM      30.45R
APPLETON       FAIR      34  19  55 W3        30.42S
CLINTONVILLE   FAIR      28  19  71 CALM      30.43S
OSHKOSH        FAIR      33  23  66 CALM      30.43S
$$

WIZ032>034-041-042-053>061-211000-
SOUTHWEST WISCONSIN

CITY           SKY/WX    TMP DP  RH WIND       PRES   REMARKS
LA CROSSE      FAIR      37  28  70 CALM      30.42S
SPARTA         FAIR      27  24  87 CALM      30.43S
VIROQUA        FAIR      39  24  53 E6        30.40S WCI  35
BOSCOBEL       FAIR      34  30  85 CALM      30.43R
PRAIRIE DU CHI CLOUDY    37  31  79 CALM      30.41F
PLATTEVILLE    MOCLDY    41  30  65 E8        30.42R
$$

WIZ056-057-062-063-064-067-068-211000-
SOUTH CENTRAL WISCONSIN

CITY           SKY/WX    TMP DP  RH WIND       PRES   REMARKS
REEDSBURG      FAIR      29  27  90 CALM      30.43S
BARABOO/DELLS  FAIR      30  21  70 CALM      30.43R
LONE ROCK      NOT AVBL
MINERAL POINT  FAIR      43  25  49 SE5       30.42R
MADISON        FAIR      33  25  72 CALM      30.43S
MIDDLETON      FAIR      33  29  85 CALM      30.43S
WATERTOWN      FAIR      29  24  83 CALM      30.43S
MONROE         FAIR      43  18  36 SE6       30.42R
JANESVILLE     FAIR      34  32  93 CALM      30.43R
$$

WIZ051-052-058>065-066-070>072-211000-
SOUTHEAST WISCONSIN

CITY           SKY/WX    TMP DP  RH WIND       PRES   REMARKS
MILWAUKEE      FAIR      33  22  63 CALM      30.44R
WAUKESHA       FAIR      30  23  74 CALM      30.45S
MILWAUKEE/TIMM FAIR      32  23  69 CALM      30.45R
RACINE         FAIR      33  23  66 CALM      30.45S
BURLINGTON     FAIR      29  26  88 CALM      30.44S
KENOSHA        FAIR      34  22  61 CALM      30.44S
FOND DU LAC    FAIR      30  23  75 CALM      30.43S
SHEBOYGAN      FAIR      30  28  92 CALM      30.44R
WEST BEND      FAIR      28  27  93 CALM      30.44R
JUNEAU         FAIR      34  23  65 CALM      30.44S
$$

LSZ147-162-211000-
LAKE SUPERIOR

STATION/POSITION TIME  TEMP    WIND        PRES    WAVE
                       AIR SEA DIR/SP/G            HT/PER
                 (UTC) (F)     (DEG/KT/KT) (MB)    (FT/S)
DEVILS ISLAND    0800   38     250/  9/  9 1030.1R
SAXON HARBOR     0840   29     200/  4/  6 1029.1R
$$

LMZ867-665-643>646-211000-
LAKE MICHIGAN

STATION/POSITION TIME  TEMP    WIND        PRES    WAVE
                       AIR SEA DIR/SP/G            HT/PER
                 (UTC) (F)     (DEG/KT/KT) (MB)    (FT/S)
NORTHPORT PIER   0840   35                 1029.5S
KEWAUNEE LAKESHO 0830   29     280/  2/  2 1029.8R
SHEBOYGAN LAKESH 0800   38      CALM  /  1 1031.1F
PORT WASHINGTON  0840   33     250/  2/  3 1031.8R
MILWAUKEE LAKESH 0830   41     230/  1/  1   N/A
KENOSHA   LAKESH 0800   37                 1030.5
$$

TC  - TEMPERATURE IN CELSIUS
VSB - VISIBILITY IN STATUTE MILES
WCI - WIND CHILL INDEX
HX  - HEAT INDEX





USA.gov is the U.S. government's official web portal to all federal, state and local government web resources and services.